Volver al catálogo

SL-14 R/B

ActivoPO
NORAD 16987·ROCKET BODY·🇷🇺 Russia

Lanzado Sep 30, 1986 desde Plesetsk Cosmodrome

Loading…

Próximos Pases (próximas 24 horas)

TLE

ActualizadoSource: Space-Track

Época: Sep 14, 2026, 22:06 UTC

1 16987U 86074B   26257.92093624  .00000346  00000-0  37224-4 0  9998
2 16987  82.5170  24.4877 0015964 286.3456 213.3662 14.85497587138055

Sigue SL-14 R/B en tiempo real con AllMySat

Download on the App Store